SCP
0 0 0 0 0 0 0 0 0 0 0 0 0 0 0 0 0 0 0 0 0 0 0 0 0 0 1 1 1 1 1 2 1 1 1 1 0 0 0 0 0 0 0 0
0 0 0 0 0 0 0 0 0 0 0 0 0 0 0 0 0 0 0 0 0 0 0 0 1 1 1 1 1 1 2 2 2 1 1 1 0 0 0 0 0 0 0 0
0 0 0 0 0 0 0 0 0 0 0 0 0 0 0 0 0 0 0 0 0 1 1 1 1 1 1 2 2 2 2 2 2 2 1 1 1 1 0 0 0 0 0 0
0 0 0 0 0 0 0 0 0 0 0 0 0 0 0 0 0 0 0 0 1 1 1 1 1 2 2 3 3 3 3 3 2 2 1 1 1 1 1 0 0 0 0 0
0 0 0 0 0 0 0 0 0 0 0 0 0 0 0 0 0 0 0 0 0 1 1 2 2 2 3 3 4 4 4 3 3 2 1 1 1 1 1 0 0 0 0 0
0 0 0 0 0 0 0 0 0 0 0 0 0 0 0 0 0 0 0 0 0 1 1 2 2 2 3 4 4 5 4 3 3 2 1 1 1 1 0 0 1 0 0 0
0 0 0 0 0 0 0 0 0 0 0 0 0 0 0 0 0 0 0 0 0 0 1 1 2 3 3 4 4 4 4 3 2 2 1 1 1 0 0 0 0 0 0 0
0 0 0 0 0 0 0 0 0 0 0 0 0 0 0 0 0 0 0 0 0 0 1 1 2 2 3 4 4 4 3 2 2 1 1 0 0 0 0 0 0 0 0 0
0 0 0 0 0 0 0 0 0 0 0 0 0 0 0 0 0 0 0 0 0 0 0 1 1 2 2 3 3 3 2 1 1 1 0 0 0 0 0 0 0 0 0 0
0 0 0 0 0 0 0 0 0 0 0 0 0 0 0 0 0 0 0 0 0 0 0 0 1 1 1 2 2 2 2 1 1 0 0 0 0 0 0 0 0 0 0 0
0 0 0 0 0 0 0 0 0 0 0 0 0 0 0 0 0 0 0 0 0 0 0 0 0 1 1 1 1 1 1 1 0 0 0 0 0 0 0 0 0 0 0 0
0 0 0 0 0 0 0 0 0 0 0 0 0 0 0 0 0 0 0 0 0 0 0 0 0 0 0 0 1 0 0 0 0 0 0 0 0 0 0 0 0 0 0 0
0 0 0 0 0 0 0 0 0 0 0 0 0 0 0 0 0 0 0 0 0 0 0 0 0 0 0 0 0 0 0 0 0 0 0 0 1 1 1 0 0 0 0 0
0 0 0 0 0 0 0 0 0 0 0 0 0 0 0 0 0 0 0 0 0 0 0 0 0 0 0 0 0 0 0 0 0 0 1 1 1 1 1 1 1 0 0 0
0 0 0 0 0 0 0 0 0 0 0 0 0 0 0 0 0 0 0 0 0 0 0 0 0 0 0 0 0 0 0 0 0 0 0 1 1 1 1 1 1 1 0 0
0 0 0 0 0 0 0 0 0 0 0 0 0 0 0 0 0 0 0 0 0 0 0 0 0 0 0 0 0 0 0 0 0 0 0 0 0 0 0 1 1 0 0 0
0 0 0 0 0 0 0 0 0 0 0 0 0 0 0 0 0 0 0 0 0 0 0 0 0 0 0 0 0 0 0 0 0 0 0 0 0 0 0 0 0 0 0 0
0 0 0 0 0 0 0 0 0 0 0 0 0 0 0 0 0 0 0 0 0 0 0 0 0 0 0 0 0 0 0 0 0 0 0 0 0 0 0 0 0 0 0 0
0 0 0 0 0 0 0 0 0 0 0 0 0 0 0 0 0 0 0 0 0 0 0 0 0 0 0 -0 -0 0 0 0 0 0 0 0 0 0 0 0 0 0 0 0
0 0 0 0 0 0 0 0 0 0 0 0 0 0 0 0 0 0 0 0 0 0 0 0 0 0 -0 -0 -0 -0 0 0 0 0 0 0 0 0 0 0 0 0 0 0
0 0 0 0 0 0 0 0 0 0 0 0 0 0 0 0 0 0 0 0 0 0 0 0 0 0 0 0 0 0 0 0 0 0 0 0 0 0 0 0 0 0 0 0
0 0 0 0 0 0 0 0 0 0 0 0 0 0 0 0 0 0 0 0 0 0 0 0 0 0 0 0 0 0 0 0 0 0 0 0 0 0 0 0 0 0 0 0
0 0 0 0 0 0 0 0 0 0 0 0 0 0 0 0 0 0 0 0 0 0 0 0 0 0 0 0 0 0 0 0 0 0 0 0 0 0 0 0 0 0 0 0
0 0 0 0 0 0 0 0 0 0 0 0 0 0 0 0 0 0 0 0 0 0 0 0 0 0 0 0 0 0 0 0 0 0 0 0 0 0 0 0 0 0 0 0
0 0 0 0 0 0 0 0 0 0 0 0 0 0 0 0 0 0 0 0 0 0 0 0 0 0 0 0 0 0 0 0 0 0 0 0 0 0 0 0 0 0 0 0
0 0 0 0 0 0 0 0 0 0 0 0 0 0 0 0 0 0 0 0 0 0 0 0 0 0 0 0 0 0 0 0 0 0 0 0 0 0 0 0 0 0 0 0
Wind_Speed
3 4 1 4 4 3 2 3 5 6 2 1 4 7 9 7 6 7 7 7 8 9 10 9 11 12 12 13 13 13 12 10 9 6 5 4 4 3 3 4 5 6 6 7
5 3 4 2 1 1 2 2 5 5 1 2 3 6 5 5 6 8 9 10 10 11 10 9 9 11 15 16 16 14 13 11 10 7 5 3 3 2 2 2 4 5 6 6
1 4 3 1 2 1 2 3 4 5 2 1 3 5 3 5 5 9 12 11 11 12 12 10 8 9 11 13 14 11 11 10 8 7 4 3 3 2 2 2 3 4 5 5
2 4 4 4 3 2 5 4 4 3 1 3 1 4 4 6 7 13 16 15 15 16 14 9 6 6 7 8 7 8 9 9 8 8 5 4 4 3 4 3 2 3 4 4
4 5 6 6 5 4 3 4 2 1 2 1 1 3 5 6 9 14 15 16 16 16 15 10 5 2 1 5 7 9 11 10 9 6 3 2 2 2 2 2 3 3 3 4
4 4 4 4 5 4 4 4 3 4 3 2 3 3 3 5 9 14 15 16 16 16 15 11 8 7 7 8 9 10 11 10 9 6 2 3 3 3 4 3 3 2 2 2
9 7 7 5 7 7 7 5 5 5 2 4 1 2 1 5 8 10 14 15 15 14 13 12 9 7 7 8 9 9 11 10 7 5 3 4 5 5 4 4 4 3 2 2
6 7 6 7 4 5 5 1 2 4 4 3 2 1 2 4 8 9 10 11 12 13 12 11 9 7 7 8 8 7 8 8 5 3 3 3 4 3 2 3 3 3 3 2
3 5 4 5 4 3 5 4 2 2 2 2 2 1 2 10 14 15 14 13 13 12 12 11 9 8 7 7 8 7 6 5 3 3 3 3 3 3 3 3 2 2 2 2
0 4 5 6 6 6 3 2 4 2 1 2 1 3 7 16 18 18 16 14 12 11 10 10 8 8 7 6 7 7 4 1 2 3 3 2 3 3 3 3 3 3 3 3
2 1 6 6 6 6 7 5 3 2 1 1 0 2 7 12 14 15 15 13 11 10 9 8 7 6 6 5 5 4 1 0 2 3 3 3 3 3 3 3 3 3 3 4
2 4 3 4 2 3 3 4 3 2 2 1 1 2 7 11 12 13 14 13 12 10 8 6 5 6 6 5 3 2 2 2 2 3 3 3 3 3 3 2 2 3 3 3
3 5 5 8 7 8 6 7 5 2 0 1 1 2 8 13 15 15 15 14 12 11 10 8 7 6 5 5 4 4 3 3 3 4 4 3 3 3 2 1 1 2 2 2
6 6 4 2 3 6 8 11 9 4 2 3 4 5 12 18 18 18 17 15 12 12 11 10 9 8 6 5 5 4 2 0 2 3 3 3 2 2 1 1 1 1 1 2
6 5 4 4 4 6 12 15 15 13 9 6 6 7 12 16 15 14 14 14 14 14 13 13 11 10 9 9 9 8 7 6 4 5 4 3 3 3 3 2 2 1 1 2
5 5 3 1 1 7 12 17 15 12 10 8 8 7 12 13 10 11 14 15 15 13 12 12 12 12 12 11 11 11 11 9 8 8 7 6 5 5 5 5 4 3 3 2
3 4 3 1 3 3 8 11 10 7 9 8 8 9 14 13 14 11 12 14 13 11 9 10 9 9 9 9 8 9 8 8 9 9 8 7 7 6 6 5 5 4 4 3
3 4 3 2 4 5 3 3 4 4 5 7 6 9 12 12 12 6 6 10 11 10 8 7 7 7 7 7 7 7 7 8 8 8 7 7 7 7 6 6 6 5 4 3
3 5 4 3 3 1 3 3 3 3 3 5 7 10 12 14 6 4 9 11 9 6 5 4 4 4 5 6 6 6 7 6 7 7 7 7 6 6 7 7 6 5 4 5
6 5 5 4 3 1 4 2 0 1 2 4 6 8 10 10 7 8 13 13 10 7 4 3 3 4 5 5 5 5 6 6 6 6 5 5 6 6 6 6 5 4 4 5
5 5 5 3 2 3 5 2 1 1 3 6 5 6 5 4 4 10 13 10 7 5 4 3 4 4 4 5 5 5 5 5 4 4 5 6 6 6 6 5 5 5 5 6
3 2 2 3 2 5 3 1 3 5 4 4 4 4 5 7 8 8 9 9 8 6 4 3 4 4 4 4 4 4 4 4 2 3 4 5 6 6 5 6 6 6 6 6
4 6 5 6 6 5 3 4 3 3 3 4 4 5 5 6 6 7 8 8 7 5 4 3 3 4 5 3 2 3 4 2 2 3 4 4 4 5 5 6 6 5 6 5
3 3 3 2 4 4 3 3 3 3 4 5 6 6 4 5 7 7 7 7 7 6 5 4 3 4 5 4 3 2 2 1 1 2 2 3 3 4 5 5 5 5 5 5
6 6 3 3 4 3 5 4 4 3 3 4 4 3 4 5 6 5 6 6 6 5 4 3 3 4 5 4 3 2 0 2 1 1 1 2 2 2 3 3 3 4 3 4
7 9 8 8 8 6 6 5 3 3 2 2 3 4 5 4 5 6 6 5 5 6 5 4 4 5 5 4 4 2 1 2 2 0 1 1 2 1 1 1 2 2 2 4
Wind_Direction
30 51 309 255 217 219 209 225 259 262 266 263 267 279 295 328 351 340 331 315 298 280 268 255 239 225 213 205 200 195 192 184 170 165 169 174 195 194 196 197 190 190 195 196
29 329 277 271 152 153 199 252 268 283 309 249 287 286 307 4 19 5 351 336 320 310 298 276 251 228 214 208 203 196 191 182 177 178 165 153 150 173 185 186 188 187 186 188
231 283 327 45 27 324 265 232 256 270 330 17 329 312 352 351 9 9 5 351 341 329 312 293 269 238 220 212 203 191 182 171 163 146 123 100 92 88 127 184 195 193 186 187
357 343 24 35 6 329 285 286 260 259 285 288 17 292 313 333 344 0 357 352 346 338 326 306 283 251 215 201 178 158 143 134 128 125 139 167 175 187 197 185 182 176 182 186
356 11 39 29 341 343 293 332 346 291 193 281 303 224 302 347 354 348 347 347 345 343 338 334 334 319 136 129 119 115 111 110 108 107 143 193 192 177 146 145 155 162 175 188
355 3 39 358 334 350 342 9 22 40 86 250 241 186 321 5 343 333 338 342 345 348 350 358 18 39 66 87 98 105 105 102 99 103 140 205 195 179 163 158 156 156 166 182
348 358 360 3 360 357 23 33 1 344 357 245 271 140 79 359 348 333 330 335 342 349 354 1 16 38 55 73 86 96 104 101 105 127 182 202 197 188 180 172 167 161 167 187
7 330 354 6 7 329 340 60 201 248 242 284 346 154 142 10 342 332 329 332 342 353 358 4 12 37 59 67 76 84 97 109 124 152 199 203 188 180 177 170 166 172 180 187
357 297 336 3 2 29 358 347 273 222 256 266 296 40 353 351 351 351 347 344 348 353 357 5 15 33 58 68 72 74 82 102 139 177 186 186 177 173 178 174 166 167 170 168
50 296 321 329 17 25 41 344 15 14 242 243 288 49 359 345 345 345 344 341 342 348 353 5 19 26 42 51 61 62 65 129 178 175 168 173 174 182 179 163 162 161 160 150
56 58 323 4 27 347 358 10 4 315 262 224 151 60 13 345 340 343 342 340 343 347 349 2 14 19 30 36 43 47 10 215 172 163 161 157 159 166 160 155 160 159 157 159
66 96 335 316 339 17 31 357 332 310 319 345 122 70 6 348 348 354 350 351 354 358 1 6 17 20 15 11 2 334 284 236 197 168 155 153 137 125 119 127 143 145 156 169
69 68 11 349 357 9 3 346 329 279 274 1 62 23 355 357 2 5 1 358 3 8 18 24 31 29 13 357 338 311 275 239 194 161 146 128 113 107 111 114 117 132 157 180
88 72 88 47 351 347 355 9 15 24 40 44 34 6 357 358 358 358 1 3 9 21 28 29 31 30 24 15 0 349 338 257 151 138 131 127 115 111 118 109 119 155 186 203
74 83 81 97 83 47 32 23 26 36 36 41 28 19 0 348 345 350 359 5 14 22 27 29 31 32 33 33 32 30 29 35 59 75 65 48 37 40 31 26 7 330 262 241
60 106 115 111 100 50 35 18 16 25 23 22 21 15 346 336 342 358 5 8 12 13 18 22 28 31 32 31 31 34 38 42 54 59 50 36 28 26 18 5 358 351 333 312
58 104 103 20 316 30 24 360 360 21 28 12 10 341 332 340 343 350 359 3 3 1 5 14 18 22 25 25 28 32 33 40 50 50 42 32 28 26 14 5 9 4 350 342
102 93 98 71 48 52 294 298 336 349 31 15 351 339 341 333 314 310 2 0 352 349 355 2 7 13 14 19 25 29 31 36 41 40 34 27 25 21 13 16 15 6 359 358
79 116 98 90 86 35 326 2 356 344 343 358 345 340 343 335 326 350 360 355 339 331 334 343 355 3 10 13 12 30 29 29 34 29 23 17 16 16 17 17 10 6 9 14
44 65 93 94 103 197 268 299 306 253 322 342 340 331 337 355 19 333 331 334 329 331 330 342 353 9 13 359 4 32 24 25 22 13 10 9 15 21 20 16 13 9 18 24
21 32 65 99 125 252 253 283 133 135 269 306 311 308 321 334 266 282 306 318 322 325 333 353 3 2 350 347 8 24 18 9 352 4 18 21 20 25 26 27 26 25 31 37
155 128 146 132 148 242 245 153 168 214 250 279 287 290 300 293 291 301 316 331 339 342 339 346 347 338 335 346 5 11 357 333 351 30 35 29 25 27 29 36 32 29 31 36
184 188 184 185 208 227 217 209 224 206 246 271 273 288 299 301 309 318 324 332 335 335 329 328 327 324 325 333 347 352 330 338 37 44 36 28 30 32 31 37 33 30 30 32
238 148 139 223 260 247 241 246 259 232 234 258 270 283 291 296 304 314 320 327 332 330 327 326 326 319 314 316 321 310 321 30 90 52 24 18 24 30 35 37 35 36 28 25
206 165 165 226 252 258 265 245 247 261 263 279 296 292 296 301 307 310 314 316 319 318 314 311 294 286 288 297 298 294 189 134 125 62 17 13 19 34 47 46 37 31 30 18
192 171 172 208 206 185 221 227 222 235 266 293 313 322 324 316 307 310 308 305 309 311 311 309 297 282 283 286 283 276 200 161 154 90 4 7 10 31 60 56 36 24 5 4